When you browse on this site, cookies collect data to enhance your experience and personalize the content and advertising you see.
Visit our Privacy Policy to learn more. By continuing to use the site, you agree to this use of cookies and data.
  • In Switzerland
  • List of Countries
  • For 7 days
  • Water Temperature
  • Satellite Maps
  • Weather Map
  • Weather Widgets
  • user-avatar
    Login

    Hourly Weather Saidpur

    Today, 25 April, Thursday

    Time Temperature Precipitation Wind Pressure Humidity
    00:00 +32°C° 0 mm 1 mps 753 mmHg 45%
    01:00 +32°C° 0 mm 1 mps 753 mmHg 46%
    02:00 +31°C° 0 mm 1 mps 753 mmHg 47%
    03:00 +31°C° 0 mm 1 mps 752 mmHg 49%
    04:00 +30°C° 0 mm 2 mps 752 mmHg 50%
    05:00 +30°C° 0 mm 2 mps 753 mmHg 52%
    06:00 +30°C° 0 mm 1 mps 753 mmHg 57%
    07:00 +32°C° 0 mm 1 mps 753 mmHg 52%
    08:00 +34°C° 0 mm 2 mps 753 mmHg 47%
    09:00 +36°C° 0 mm 2 mps 754 mmHg 42%
    10:00 +36°C° 0 mm 1 mps 753 mmHg 38%
    11:00 +39°C° 0 mm 1 mps 753 mmHg 34%
    12:00 +39°C° 0 mm 2 mps 754 mmHg 35%
    13:00 +40°C° 0 mm 1 mps 753 mmHg 33%
    14:00 +40°C° 0 mm 1 mps 752 mmHg 31%
    15:00 +41°C° 0 mm 1 mps 751 mmHg 29%
    16:00 +41°C° 0 mm 1 mps 751 mmHg 29%
    17:00 +41°C° 0 mm 1 mps 751 mmHg 30%
    18:00 +37°C° 0 mm 0 mps 750 mmHg 30%
    19:00 +39°C° 0 mm 1 mps 751 mmHg 31%
    20:00 +37°C° 0 mm 1 mps 751 mmHg 32%
    21:00 +36°C° 0 mm 1 mps 751 mmHg 34%
    22:00 +37°C° 0 mm 2 mps 751 mmHg 36%
    23:00 +36°C° 0 mm 2 mps 751 mmHg 38%

    Tomorrow, 26 April, Friday

    Time Temperature Precipitation Wind Pressure Humidity
    00:00 +35°C° 0 mm 2 mps 751 mmHg 40%
    01:00 +35°C° 0 mm 2 mps 751 mmHg 42%
    02:00 +33°C° 0 mm 1 mps 751 mmHg 43%
    03:00 +33°C° 0 mm 1 mps 750 mmHg 45%
    04:00 +33°C° 0 mm 1 mps 750 mmHg 47%
    05:00 +32°C° 0 mm 2 mps 751 mmHg 48%
    06:00 +32°C° 0 mm 2 mps 751 mmHg 49%
    07:00 +34°C° 0.2 mm 2 mps 751 mmHg 48%
    08:00 +35°C° 0.2 mm 2 mps 752 mmHg 47%
    09:00 +36°C° 0.2 mm 2 mps 753 mmHg 45%
    10:00 +38°C° 0 mm 2 mps 752 mmHg 41%
    11:00 +39°C° 0 mm 2 mps 752 mmHg 37%
    12:00 +41°C° 0 mm 2 mps 752 mmHg 33%
    13:00 +40°C° 0 mm 2 mps 751 mmHg 33%
    14:00 +40°C° 0 mm 2 mps 751 mmHg 33%
    15:00 +40°C° 0 mm 1 mps 750 mmHg 34%
    16:00 +39°C° 0 mm 2 mps 749 mmHg 35%
    17:00 +39°C° 0 mm 3 mps 749 mmHg 37%
    18:00 +38°C° 0 mm 4 mps 749 mmHg 39%
    19:00 +37°C° 0 mm 4 mps 749 mmHg 42%
    20:00 +36°C° 0 mm 4 mps 750 mmHg 44%
    21:00 +35°C° 0 mm 4 mps 751 mmHg 47%
    22:00 +35°C° 0 mm 4 mps 751 mmHg 50%
    23:00 +34°C° 0 mm 4 mps 751 mmHg 53%

    Day after tomorrow, 27 April, Saturday

    Time Temperature Precipitation Wind Pressure Humidity
    00:00 +33°C° 0 mm 4 mps 751 mmHg 57%
    01:00 +32°C° 0 mm 4 mps 751 mmHg 58%
    02:00 +32°C° 0 mm 4 mps 750 mmHg 59%
    03:00 +32°C° 0 mm 4 mps 750 mmHg 60%
    04:00 +30°C° 0 mm 3 mps 750 mmHg 62%
    05:00 +30°C° 0 mm 3 mps 750 mmHg 64%
    06:00 +30°C° 0 mm 2 mps 750 mmHg 66%
    07:00 +31°C° 0 mm 3 mps 751 mmHg 61%
    08:00 +34°C° 0 mm 3 mps 752 mmHg 57%
    09:00 +35°C° 0 mm 3 mps 752 mmHg 52%
    10:00 +37°C° 0 mm 3 mps 752 mmHg 46%
    11:00 +39°C° 0 mm 3 mps 751 mmHg 40%
    12:00 +42°C° 0 mm 3 mps 751 mmHg 34%
    13:00 +42°C° 0 mm 2 mps 750 mmHg 30%
    14:00 +43°C° 0 mm 2 mps 749 mmHg 26%
    15:00 +45°C° 0 mm 2 mps 748 mmHg 23%
    16:00 +43°C° 0 mm 2 mps 748 mmHg 25%
    17:00 +43°C° 0 mm 3 mps 747 mmHg 27%
    18:00 +42°C° 0 mm 3 mps 747 mmHg 29%
    19:00 +40°C° 0 mm 5 mps 748 mmHg 38%
    20:00 +38°C° 0 mm 6 mps 749 mmHg 46%
    21:00 +35°C° 0 mm 7 mps 749 mmHg 55%
    22:00 +34°C° 0 mm 6 mps 749 mmHg 57%
    23:00 +34°C° 0 mm 6 mps 749 mmHg 58%

    28 April, Sunday

    Time Temperature Precipitation Wind Pressure Humidity
    00:00 +33°C° 0 mm 5 mps 749 mmHg 59%
    01:00 +32°C° 0 mm 4 mps 749 mmHg 60%
    02:00 +31°C° 0 mm 3 mps 749 mmHg 61%
    03:00 +31°C° 0 mm 2 mps 749 mmHg 62%
    04:00 +31°C° 0 mm 2 mps 749 mmHg 63%
    05:00 +30°C° 0 mm 2 mps 749 mmHg 65%
    06:00 +30°C° 0 mm 2 mps 749 mmHg 66%
    07:00 +33°C° 0 mm 3 mps 750 mmHg 61%
    08:00 +35°C° 0 mm 3 mps 751 mmHg 55%
    09:00 +36°C° 0 mm 4 mps 751 mmHg 50%
    10:00 +38°C° 0 mm 4 mps 751 mmHg 46%
    11:00 +40°C° 0 mm 4 mps 751 mmHg 42%
    12:00 +40°C° 0 mm 3 mps 750 mmHg 38%
    13:00 +42°C° 0 mm 3 mps 749 mmHg 33%
    14:00 +43°C° 0 mm 3 mps 748 mmHg 29%
    15:00 +43°C° 0 mm 2 mps 747 mmHg 25%
    16:00 +43°C° 0 mm 2 mps 747 mmHg 25%
    17:00 +43°C° 0 mm 2 mps 747 mmHg 25%
    18:00 +42°C° 0 mm 2 mps 747 mmHg 25%
    19:00 +41°C° 0 mm 4 mps 747 mmHg 36%
    20:00 +39°C° 0 mm 6 mps 748 mmHg 48%
    21:00 +35°C° 0 mm 7 mps 749 mmHg 59%
    22:00 +35°C° 0 mm 6 mps 749 mmHg 61%
    23:00 +34°C° 0 mm 6 mps 749 mmHg 62%

    29 April, Monday

    Time Temperature Precipitation Wind Pressure Humidity
    00:00 +33°C° 0 mm 5 mps 749 mmHg 63%
    01:00 +33°C° 0 mm 5 mps 749 mmHg 64%
    02:00 +33°C° 0 mm 4 mps 748 mmHg 65%
    03:00 +33°C° 0 mm 4 mps 748 mmHg 66%
    04:00 +32°C° 0.1 mm 4 mps 748 mmHg 67%
    05:00 +32°C° 0.1 mm 4 mps 749 mmHg 68%
    06:00 +32°C° 0.1 mm 5 mps 749 mmHg 69%
    07:00 +33°C° 0 mm 5 mps 750 mmHg 64%
    08:00 +34°C° 0 mm 5 mps 750 mmHg 59%
    09:00 +36°C° 0 mm 5 mps 751 mmHg 54%
    10:00 +37°C° 0 mm 5 mps 751 mmHg 49%
    11:00 +38°C° 0 mm 4 mps 750 mmHg 43%
    12:00 +40°C° 0 mm 3 mps 750 mmHg 38%
    13:00 +42°C° 0 mm 3 mps 749 mmHg 33%
    14:00 +42°C° 0 mm 2 mps 748 mmHg 29%
    15:00 +44°C° 0 mm 1 mps 747 mmHg 24%
    16:00 +43°C° 0 mm 2 mps 747 mmHg 24%
    17:00 +43°C° 0 mm 2 mps 747 mmHg 23%
    18:00 +42°C° 0 mm 2 mps 746 mmHg 23%
    19:00 +41°C° 0 mm 4 mps 747 mmHg 35%
    20:00 +38°C° 0 mm 6 mps 748 mmHg 48%
    21:00 +35°C° 0 mm 7 mps 749 mmHg 61%
    22:00 +34°C° 0 mm 7 mps 749 mmHg 62%
    23:00 +34°C° 0 mm 6 mps 749 mmHg 64%

    30 April, Tuesday

    Time Temperature Precipitation Wind Pressure Humidity
    00:00 +33°C° 0 mm 5 mps 749 mmHg 65%
    01:00 +33°C° 0 mm 4 mps 749 mmHg 66%
    02:00 +33°C° 0 mm 4 mps 748 mmHg 67%
    03:00 +31°C° 0 mm 3 mps 748 mmHg 67%
    04:00 +31°C° 0 mm 3 mps 748 mmHg 67%
    05:00 +31°C° 0 mm 3 mps 749 mmHg 67%
    06:00 +32°C° 0 mm 4 mps 749 mmHg 67%
    07:00 +33°C° 0 mm 4 mps 750 mmHg 62%
    08:00 +35°C° 0 mm 4 mps 750 mmHg 57%
    09:00 +36°C° 0 mm 4 mps 751 mmHg 53%
    10:00 +37°C° 0 mm 4 mps 750 mmHg 48%
    11:00 +40°C° 0 mm 4 mps 750 mmHg 44%
    12:00 +41°C° 0 mm 4 mps 749 mmHg 39%
    13:00 +42°C° 0 mm 3 mps 748 mmHg 35%
    14:00 +43°C° 0 mm 3 mps 747 mmHg 30%
    15:00 +45°C° 0 mm 3 mps 746 mmHg 26%
    16:00 +44°C° 0 mm 3 mps 746 mmHg 26%
    17:00 +43°C° 0 mm 2 mps 746 mmHg 25%
    18:00 +43°C° 0 mm 1 mps 745 mmHg 25%
    19:00 +40°C° 0.1 mm 3 mps 746 mmHg 38%
    20:00 +37°C° 0.1 mm 5 mps 747 mmHg 51%
    21:00 +34°C° 0.1 mm 7 mps 748 mmHg 64%
    22:00 +33°C° 0.1 mm 6 mps 748 mmHg 66%
    23:00 +33°C° 0.1 mm 5 mps 748 mmHg 67%
    Show more